Weather History for KCYS - August, 2013

Change the Weather History Date:

Thursday, August 1, 2013

  Actual Average Record
Temperature  
Mean Temperature 73 °F 70 °F  
Max Temperature 90 °F 83 °F 98 °F (2008)
Min Temperature 56 °F 56 °F 42 °F (1950)
Degree Days  
Heating Degree Days 0 1  
Month to date heating degree days 0 1  
Since 1 June heating degree days 69 157  
Since 1 July heating degree days 7 23  
Cooling Degree Days 8 5  
Month to date cooling degree days 8 5  
Year to date cooling degree days 291 215  
Since 1 June cooling degree days 285 212  
Growing Degree Days 24 (Base 50)    
Moisture  
Dew Point 49 °F    
Average Humidity 58    
Maximum Humidity 100    
Minimum Humidity 15    
Precipitation  
Precipitation T in 0.08 in 6.06 in (1985)
Month to date precipitation T 0.08  
Year to date precipitation 7.24 10.58  
Snow  
Snow 0.00 in 0.00 in - ()
Month to date snowfall 0.0 0.0  
Since 1 July snowfall 0.0 0.0  
Snow Depth 0.00 in    
Sea Level Pressure  
Sea Level Pressure 29.99 in    
Wind  
Wind Speed 9 mph (SW)    
Max Wind Speed 29 mph    
Max Gust Speed 38 mph    
Visibility 9 miles    
Events Rain , Thunderstorm    
T = Trace of Precipitation, MM = Missing Value Source: NWS Daily Summary

Daily Weather History Graph

Daily Weather History Graph

Search for Another Location

Airport or City:

Trip Planner

Search our weather history database for the weather conditions in past years. The results will help you decide how hot, cold, wet, or windy it might be!

Date:

Astronomy

Aug. 01, 2013 Rise Set
Actual Time 5:55 AM MDT 8:15 PM MDT
Civil Twilight 5:24 AM MDT 8:46 PM MDT
Nautical Twilight 4:45 AM MDT 9:24 PM MDT
Astronomical Twilight 4:03 AM MDT 10:06 PM MDT
Moon 1:32 AM MDT (8/1) 4:26 PM MDT (8/1)
Length of Visible Light 15h 22m
Length of Day
14h 20m
Waning Crescent, 23% of the Moon is Illuminated
Aug 1
Waning Crescent
Aug 6
New
Aug 14
First Quarter
Aug 20
Full
Aug 28
Last Quarter

Hourly Weather History & Observations

Time (MDT) Temp. Dew Point Humidity Pressure Visibility Wind Dir Wind Speed Gust Speed Precip Events Conditions
12:53 AM 63.0 °F 55.9 °F 78% 30.04 in 10.0 mi South 13.8 mph - N/A   Clear
1:53 AM 61.0 °F 55.0 °F 81% 30.05 in 10.0 mi South 12.7 mph 20.7 mph N/A   Clear
2:53 AM 60.1 °F 57.0 °F 90% 30.04 in 10.0 mi South 13.8 mph 19.6 mph N/A   Scattered Clouds
3:53 AM 59.0 °F 55.9 °F 90% 30.03 in 10.0 mi SSW 11.5 mph - N/A   Scattered Clouds
4:53 AM 57.0 °F 55.9 °F 96% 30.00 in 7.0 mi WSW 3.5 mph - N/A   Clear
5:42 AM 55.4 °F 55.4 °F 100% 30.24 in 7.0 mi SSW 4.6 mph - N/A   Scattered Clouds
5:51 AM 55.4 °F 55.4 °F 100% 30.24 in 6.0 mi SSW 4.6 mph - N/A   Mostly Cloudy
5:53 AM 55.9 °F 55.0 °F 97% 30.00 in 5.0 mi South 5.8 mph - N/A   Mostly Cloudy
6:21 AM 57.2 °F 57.2 °F 100% 30.23 in 2.0 mi South 4.6 mph - N/A   Overcast
6:36 AM 57.2 °F 57.2 °F 100% 30.23 in 1.5 mi SSW 4.6 mph - N/A   Overcast
6:53 AM 57.0 °F 57.0 °F 100% 29.99 in 1.0 mi SSW 5.8 mph - N/A   Overcast
7:53 AM 60.1 °F 57.0 °F 90% 29.99 in 4.0 mi SW 8.1 mph - N/A   Mostly Cloudy
8:00 AM 60.8 °F 57.2 °F 88% 30.21 in 6.0 mi SSW 10.4 mph - N/A   Partly Cloudy
8:53 AM 70.0 °F 54.0 °F 57% 29.95 in 10.0 mi SSW 11.5 mph - N/A   Clear
9:53 AM 77.0 °F 51.1 °F 40% 29.91 in 10.0 mi SW 10.4 mph - N/A   Clear
10:53 AM 82.9 °F 48.9 °F 31% 29.89 in 10.0 mi SSW 9.2 mph - N/A   Clear
11:44 AM 82.4 °F 39.2 °F 21% 30.18 in 10.0 mi West 26.5 mph 38.0 mph N/A   Scattered Clouds
11:53 AM 82.9 °F 39.9 °F 22% 29.89 in 10.0 mi West 24.2 mph 34.5 mph N/A   Partly Cloudy
12:06 PM 82.4 °F 39.2 °F 21% 30.17 in 10.0 mi West 21.9 mph - N/A Thunderstorm Clear
12:25 PM 82.4 °F 39.2 °F 21% 30.16 in 10.0 mi WNW 8.1 mph - N/A   Clear
12:53 PM 86.0 °F 36.0 °F 17% 29.85 in 10.0 mi Variable 3.5 mph - N/A   Clear
1:53 PM 88.0 °F 33.1 °F 14% 29.83 in 10.0 mi NNW 4.6 mph - N/A   Clear
2:53 PM 84.9 °F 45.0 °F 25% 29.82 in 10.0 mi NE 8.1 mph - N/A   Clear
3:53 PM 84.0 °F 43.0 °F 24% 29.83 in 10.0 mi West 6.9 mph - N/A   Scattered Clouds
4:07 PM 75.2 °F 48.2 °F 38% 30.13 in 10.0 mi NNW 21.9 mph 36.8 mph N/A Thunderstorm Mostly Cloudy
4:17 PM 73.4 °F 48.2 °F 41% 30.14 in 10.0 mi NNW 19.6 mph 26.5 mph N/A Thunderstorm Overcast
4:30 PM 71.6 °F 48.2 °F 43% 30.16 in 10.0 mi North 15.0 mph 27.6 mph 0.00 in Rain Light Rain
4:53 PM 71.1 °F 51.1 °F 49% 29.92 in 10.0 mi North 10.4 mph 19.6 mph 0.00 in   Clear
5:53 PM 73.0 °F 50.0 °F 44% 29.90 in 10.0 mi SSE 3.5 mph - N/A   Clear
6:53 PM 73.0 °F 50.0 °F 44% 29.87 in 10.0 mi South 4.6 mph - N/A   Clear
7:53 PM 71.1 °F 48.9 °F 45% 29.87 in 10.0 mi SSW 4.6 mph - N/A   Clear
8:53 PM 71.1 °F 45.0 °F 39% 29.82 in 10.0 mi West 13.8 mph 23.0 mph N/A   Clear
9:53 PM 70.0 °F 46.9 °F 44% 29.80 in 10.0 mi ESE 5.8 mph - N/A   Scattered Clouds
10:53 PM 64.9 °F 48.9 °F 56% 29.79 in 10.0 mi SSE 9.2 mph - N/A   Clear
11:53 PM 64.0 °F 46.9 °F 54% 29.79 in 10.0 mi SW 9.2 mph - N/A   Clear